Lid_Strength_Index
1 -0 -1 -2 -1 -1 -1 -1 -2 -2 -2 -2 -2 -1 -1 -2 -2 -2 -2 -2 -2 -2 -2 -2 -2 -2 -2 -2 -2 -2 -2 -2 -1 -2 -2 -2 -2 -2 -2 -2 -1 -1 -1
-0 -1 -0 -1 -2 -2 -2 -2 -2 -2 -2 -2 -1 -1 -1 -2 -2 -2 -2 -2 -2 -2 -2 -2 -2 -1 -1 -2 -2 -2 -2 -2 -2 -2 -2 -2 -2 -2 -2 -2 -2 -1 -2
-0 -1 -1 -1 -2 -2 -2 -2 -2 -2 -2 -1 -1 -2 -1 -1 -2 -2 -2 -2 -2 -2 -2 -2 -2 -1 -1 -2 -2 -2 -2 -2 -2 -1 -2 -0 -0 -2 -2 -2 -2 -2 -2
-0 -1 -1 -1 -2 -2 -2 -2 -2 -2 -2 -2 -2 -2 -1 -2 -2 -2 -2 -2 -2 -2 -2 -2 -2 -2 -2 -2 -2 -2 -2 -2 -2 -1 -1 -1 -1 -2 -2 -2 -2 -2 -2
-0 -0 -1 -1 -2 -2 -2 -2 -2 -2 -2 -2 -2 -2 -2 -2 -2 -2 -2 -2 -2 -2 -2 -2 -2 -2 -2 -2 -2 -2 -2 -1 -1 -1 -0 -0 -0 -1 -2 -2 -2 -2 -2
0 -0 -0 -1 -2 -2 -2 -2 -2 -2 -2 -1 -1 -2 -2 -2 -2 -2 -2 -2 -2 -2 -2 -2 -2 -2 -2 -2 -2 -2 -1 -1 -0 0 1 0 -0 -2 -2 -2 -2 -2 -2
1 -0 -0 -1 -1 -2 -2 -2 -2 -2 -2 -2 -1 -1 -2 -1 -2 -2 -2 -2 -2 -2 -2 -2 -1 -1 -0 -1 -1 -1 -1 -1 2 1 2 0 -0 -2 -2 -2 -2 -2 -2
1 -0 -1 1 0 -1 -2 -2 -2 -2 -2 -2 -2 -2 -2 -2 -2 -2 -2 -2 -2 -2 -2 -1 -0 0 1 1 1 0 -0 -0 1 2 2 1 -3 -2 -2 -2 -2 -2 -2
6 4 0 -0 1 2 1 0 -1 -1 -2 -2 -2 -2 -2 -2 -2 -2 -2 -2 -2 -2 -2 -2 -0 1 1 2 2 1 0 1 5 5 2 2 -2 -2 -2 -2 -2 -2 -2
9 8 7 5 -0 -0 0 3 2 0 -0 -1 -1 -0 -0 -0 -1 -1 -1 -2 -2 -2 -2 -1 0 2 2 3 2 1 2 3 6 6 4 2 -1 -2 -2 -2 -2 -2 -2
6 7 8 8 7 4 -0 1 2 2 1 1 1 1 2 -0 -0 -0 -0 -1 -2 -2 -2 -1 -0 1 3 3 2 2 5 9 8 8 6 0 -1 -2 -2 -2 -2 -2 -2
8 7 6 6 6 6 2 -0 -0 -0 0 0 -0 0 -0 -0 -0 -0 1 0 -1 -1 -2 -1 -1 0 2 6 7 5 8 9 9 8 6 2 1 -0 -2 -2 -2 -2 -2
8 6 5 5 5 5 5 1 -0 -0 1 1 0 0 -0 1 1 1 2 1 1 1 0 1 1 2 4 5 6 7 8 8 9 8 5 3 2 1 0 -1 -2 -2 -2
7 6 5 4 4 4 5 3 -0 1 2 2 2 1 0 0 1 1 1 -0 0 1 2 2 3 3 4 3 5 6 7 8 8 8 7 3 3 2 1 0 -0 -1 -2
7 7 6 4 4 3 4 1 2 4 4 3 3 1 1 1 0 0 0 1 1 2 1 3 3 4 5 4 4 5 5 6 7 7 8 4 2 2 1 1 2 1 1
7 7 6 5 4 3 2 3 4 5 4 3 4 3 2 2 2 3 3 3 3 3 3 4 4 5 5 4 4 4 4 4 5 6 7 6 3 3 2 2 2 2 2
7 7 6 5 4 5 5 5 6 5 5 6 5 4 3 3 4 4 4 4 3 4 4 4 4 4 4 4 5 5 5 4 4 6 7 7 7 4 3 2 2 2 2
8 7 6 6 6 6 6 6 6 6 5 5 5 5 4 4 4 5 5 5 4 4 5 6 5 6 7 8 7 7 6 6 7 7 7 7 8 8 6 7 5 4 3
8 8 7 7 7 7 7 7 7 6 6 6 6 6 6 6 5 5 6 6 6 7 6 6 8 9 10 9 8 8 7 8 9 8 9 10 10 10 9 8 8 6 4
8 8 8 7 8 7 7 8 8 9 9 9 9 9 9 8 7 8 8 9 9 9 9 8 9 10 11 11 7 8 9 9 9 9 10 11 11 11 11 11 12 10 6
9 9 8 8 8 7 8 9 10 11 11 11 11 12 11 10 10 10 10 11 12 12 12 10 9 13 13 13 10 9 9 9 10 10 12 12 12 11 12 11 12 11 10
10 9 8 8 8 7 7 8 10 11 13 13 13 13 13 12 12 12 13 13 14 14 14 14 13 13 14 14 12 11 12 10 11 11 12 13 13 12 12 11 12 11 11
11 10 8 7 7 9 10 11 12 12 13 14 15 15 14 14 13 13 14 14 14 14 15 15 15 15 15 14 14 12 15 15 14 11 14 14 14 13 13 12 12 11 10
11 10 8 8 9 10 10 12 13 14 15 16 16 16 15 15 14 14 14 14 15 15 15 15 15 15 15 16 15 14 15 14 17 18 15 15 14 13 14 13 13 11 10
11 11 9 10 10 11 11 12 13 15 15 15 16 16 16 16 15 15 15 15 15 15 16 16 16 16 16 16 16 16 16 16 17 18 19 17 15 13 13 13 12 12 10
13 13 12 11 11 11 12 14 14 15 16 16 16 17 17 16 16 16 16 16 16 16 16 16 16 16 16 16 16 16 16 17 17 18 18 17 16 15 13 12 12 12 11